Wind_Speed
5 7 4 3 4 4 6 5 3 2 1 4 3 6 7 7 7 8 7 7 8 8 13 20 24 27 31 35 38 40 39 37 35 34 30 27 25 24 25 24 23 18 14 13
6 4 3 5 6 6 4 4 1 1 3 1 5 5 4 6 4 4 5 7 8 8 10 20 22 26 29 33 35 38 39 39 37 33 28 18 21 19 22 27 26 23 18 15
4 5 3 3 4 5 2 5 2 1 3 2 4 4 5 3 3 7 7 5 5 6 8 11 20 22 26 28 30 32 35 37 38 36 33 30 28 26 33 34 30 27 23 19
5 1 3 4 3 2 3 2 3 2 2 1 4 3 1 2 8 8 9 9 7 7 7 10 15 17 19 21 22 25 29 33 36 38 39 33 22 19 21 23 29 28 25 23
1 2 3 4 2 1 3 3 3 2 3 3 6 4 3 1 7 6 10 10 8 8 7 10 14 14 15 17 20 23 25 28 32 35 36 36 34 29 25 26 29 31 29 28
2 1 2 2 2 2 5 5 5 4 2 3 3 2 3 2 2 4 6 8 9 9 9 17 15 12 12 13 16 19 23 26 28 33 34 34 33 33 33 32 31 29 28 28
2 2 1 2 3 1 2 4 3 5 5 4 4 3 4 5 4 2 3 6 8 8 8 13 19 18 12 10 11 14 18 22 26 30 30 31 29 29 31 30 29 29 28 26
5 3 1 2 1 3 3 3 5 5 2 4 3 5 4 6 6 2 2 5 6 7 6 10 21 22 11 8 8 9 12 15 22 27 25 23 25 25 26 27 28 28 28 26
5 1 1 4 1 2 2 3 3 7 2 4 3 5 2 6 3 4 5 4 8 9 10 12 24 26 12 8 9 12 17 20 26 24 20 19 19 20 22 24 25 27 28 28
6 4 1 1 1 4 1 5 3 3 2 4 4 6 5 7 2 5 7 9 8 8 10 15 20 20 13 12 13 16 18 19 20 22 21 19 18 19 19 21 23 25 25 26
4 4 1 2 4 6 1 1 4 4 4 4 2 6 5 7 5 2 4 5 7 7 8 11 16 17 15 14 15 16 19 21 22 23 23 22 22 21 20 19 20 21 22 24
3 5 3 4 2 1 2 6 5 4 5 2 3 6 3 9 7 4 2 4 5 4 6 13 19 20 19 18 19 20 20 22 23 23 24 24 24 25 24 22 20 20 20 21
7 1 3 6 5 0 4 5 4 5 3 6 5 6 4 6 4 2 3 4 3 6 8 13 18 18 19 21 23 24 24 24 23 23 25 26 27 28 28 27 24 19 19 19
5 3 6 8 4 5 6 6 5 6 4 4 8 4 7 9 3 0 3 2 5 7 8 8 13 14 18 19 23 25 25 24 24 24 24 25 27 28 28 27 27 24 20 18
3 5 3 2 3 2 1 5 10 9 10 7 5 9 7 6 6 4 4 4 6 7 8 8 10 13 15 18 23 25 25 24 24 24 24 25 25 25 26 27 27 26 25 20
1 2 2 3 4 5 3 6 8 10 3 9 3 14 6 5 6 4 4 4 5 4 5 6 10 11 11 17 20 23 24 23 22 23 25 26 26 27 28 28 27 27 27 26
6 6 3 4 4 4 6 14 17 6 5 9 8 11 6 3 6 5 6 5 4 2 2 4 8 9 8 14 17 21 23 23 24 24 25 26 28 28 29 29 28 27 27 26
6 5 3 2 3 3 6 2 3 13 5 10 2 4 7 6 4 6 4 6 5 3 2 6 7 6 10 14 18 21 24 25 26 26 26 26 28 29 29 29 28 28 26 26
1 5 4 5 4 6 4 6 7 8 9 13 14 6 6 5 4 4 7 6 6 3 4 7 3 6 13 18 22 26 26 25 24 24 27 28 28 28 29 28 27 27 27 26
3 5 3 4 6 9 5 4 5 5 6 9 14 10 9 8 2 4 5 8 5 1 1 3 4 10 15 18 19 19 20 19 20 26 29 28 27 28 27 26 26 25 24 25
4 2 7 3 4 8 5 7 6 6 7 7 12 10 11 6 4 5 11 6 6 3 2 2 7 10 11 13 16 16 17 18 23 24 25 27 27 26 24 23 23 23 23 23
8 8 4 3 2 10 11 5 10 5 3 8 6 8 9 6 8 6 7 6 4 3 1 5 8 9 10 11 13 14 15 20 21 24 25 26 25 23 21 22 22 19 18 18
4 7 7 10 8 0 22 4 3 4 5 7 8 6 8 8 6 7 5 6 6 5 3 5 6 7 8 11 10 11 17 19 22 24 25 26 25 23 21 19 20 19 16 16
4 3 3 3 5 6 17 2 2 4 5 4 5 6 8 7 7 6 6 8 8 7 6 6 5 5 7 10 11 13 15 17 20 23 25 24 24 25 23 19 16 18 16 16
4 11 7 5 3 2 6 9 9 7 6 6 7 6 9 8 7 8 8 10 10 8 8 6 3 4 7 9 11 12 14 16 19 21 23 24 23 24 23 19 18 18 18 17
6 8 7 8 11 6 7 19 14 13 12 12 10 7 10 13 9 13 11 13 12 10 10 7 4 4 6 8 9 11 12 14 17 20 22 24 25 25 23 23 25 19 16 17
Wind_Direction
11 69 99 115 59 107 111 107 151 249 88 17 358 308 348 360 39 42 30 15 11 13 357 18 19 22 23 25 24 23 20 17 15 13 7 4 1 7 11 13 8 1 346 327
30 95 166 117 86 96 92 112 18 306 4 58 359 311 1 20 25 35 19 9 13 359 358 6 16 20 26 26 25 25 24 23 21 19 16 12 21 11 16 16 17 11 6 356
114 149 107 124 93 105 52 133 161 101 9 47 337 338 21 10 50 32 16 360 15 350 342 354 10 18 23 28 27 28 28 28 27 26 25 27 31 26 21 18 15 19 19 9
90 350 117 103 88 114 128 141 105 123 77 119 22 246 90 17 40 24 2 359 344 346 349 351 3 11 19 25 29 35 35 33 31 29 30 29 22 19 8 10 19 22 22 21
165 105 93 81 103 42 133 96 100 103 95 103 353 71 249 353 29 5 354 354 351 347 343 334 346 355 7 21 26 29 36 39 37 34 32 28 26 25 19 19 21 17 22 24
101 45 61 123 94 68 134 92 60 55 70 44 257 123 275 54 55 1 343 350 354 349 335 333 333 339 354 14 26 33 30 38 39 36 29 24 20 18 19 18 19 21 13 13
26 359 5 86 89 80 100 78 353 0 14 204 342 297 242 114 88 81 308 334 335 341 346 336 345 330 337 3 27 37 39 34 28 24 22 18 15 15 13 15 15 14 12 13
149 300 142 9 113 175 72 139 146 209 233 266 354 246 217 144 121 111 318 316 334 338 315 339 351 346 319 346 8 20 37 19 7 7 12 11 8 8 12 9 9 14 11 12
145 110 4 53 29 69 190 62 150 102 54 51 249 283 237 171 79 4 328 322 1 353 351 339 348 352 330 348 9 9 353 3 4 8 9 4 3 8 8 9 10 9 11 13
195 104 7 95 48 42 95 144 78 6 100 282 280 279 237 200 13 343 351 9 347 344 343 339 342 355 29 30 11 6 11 20 21 9 10 2 2 356 1 4 7 9 10 13
153 107 236 88 202 174 91 34 47 109 135 174 261 255 227 151 158 68 351 334 346 347 342 344 9 41 40 35 30 23 16 16 11 7 6 9 7 6 359 358 1 5 5 8
192 124 153 197 256 209 218 183 150 131 234 194 143 273 134 137 149 168 7 345 340 1 357 23 28 30 28 22 22 21 15 19 16 9 8 12 12 12 8 3 355 355 360 3
187 292 63 352 352 14 208 188 118 113 89 200 141 260 173 148 111 46 42 3 2 38 28 21 27 24 19 15 18 18 16 16 16 15 13 13 14 14 13 11 3 353 351 356
92 89 158 188 184 137 189 182 163 134 130 182 228 221 214 217 223 2 21 354 65 54 37 19 17 12 15 14 17 16 15 16 13 13 14 12 10 9 8 9 11 9 356 349
127 186 117 297 323 17 236 180 175 196 197 186 250 213 219 209 208 204 218 129 74 51 29 19 12 5 8 8 11 12 13 11 7 5 5 5 2 2 1 3 4 6 8 2
23 137 118 347 358 43 302 246 208 221 200 273 275 277 177 128 127 152 166 111 94 49 12 3 0 1 1 3 3 2 4 3 356 354 353 352 351 353 354 356 357 356 359 4
144 139 117 255 356 350 313 233 210 185 193 186 215 241 155 173 187 192 174 144 144 172 290 338 350 353 349 357 355 354 351 348 346 346 344 344 343 344 346 347 348 351 352 353
134 106 58 162 14 300 238 152 214 217 205 206 219 212 177 192 196 172 177 162 162 195 257 327 335 338 341 345 341 336 333 332 334 334 335 338 340 339 340 339 340 342 344 345
73 133 116 155 201 304 251 194 170 167 253 201 208 169 170 151 105 247 170 154 164 182 305 322 329 337 335 333 330 328 328 329 331 329 329 332 335 334 335 336 336 336 337 338
79 54 118 143 176 214 236 168 151 123 289 187 175 173 161 146 194 241 157 156 176 213 249 114 325 327 327 331 334 339 340 347 341 334 329 328 327 329 331 332 332 332 332 330
124 68 184 171 222 286 199 164 166 106 237 158 173 167 157 188 191 142 144 160 180 143 104 359 321 330 347 348 347 348 349 344 336 336 334 332 333 333 331 329 328 329 330 328
158 150 174 95 131 266 150 86 170 193 42 153 155 163 172 142 138 149 157 154 152 156 332 301 315 337 354 354 351 345 340 339 342 340 339 340 342 342 335 330 331 330 329 329
206 185 178 188 205 167 178 162 164 136 148 176 154 155 154 152 170 162 163 171 179 188 190 265 307 328 346 356 351 339 341 345 342 342 345 346 346 343 340 334 328 328 329 328
250 171 164 122 205 197 206 32 201 162 163 135 129 142 148 160 165 164 180 182 183 185 213 247 301 327 340 347 351 348 347 344 344 345 349 348 341 342 341 339 335 327 328 328
176 144 163 268 232 41 241 209 180 162 138 123 115 150 159 147 164 174 183 175 191 191 216 242 275 313 333 343 352 357 353 349 347 345 349 349 342 344 338 337 333 326 322 318
193 166 176 214 185 167 202 194 169 161 171 163 149 138 160 172 173 179 183 189 195 204 226 240 253 297 325 336 351 1 357 350 347 346 352 350 348 345 340 335 331 336 326 325
Height
850 860 869 863 862 866 870 872 871 874 876 875 880 883 879 882 881 882 882 880 878 876 875 872 869 865 861 857 851 847 841 835 828 822 817 813 811 809 806 803 800 797 795 793
857 864 861 864 865 869 869 873 875 878 879 876 882 879 882 884 883 883 883 882 882 880 875 874 871 870 864 861 856 851 848 842 836 830 825 821 817 815 811 808 804 801 797 795
855 863 860 862 867 870 875 876 877 874 882 884 887 876 884 882 882 884 885 885 883 881 879 875 872 871 869 864 861 857 853 849 844 838 831 824 818 816 811 810 807 804 801 800
864 863 862 865 868 869 870 875 878 879 882 888 893 909 877 885 887 888 891 889 885 883 881 878 874 870 868 867 865 860 856 852 849 844 839 834 831 827 825 821 815 810 804 800
866 864 864 866 869 869 872 877 881 882 894 893 894 914 882 882 890 894 895 893 889 886 884 879 876 874 873 869 867 865 860 855 851 849 846 843 838 835 830 824 818 812 807 804
867 866 867 867 872 871 876 883 891 900 901 944 898 903 892 891 890 895 898 897 893 888 883 879 876 873 872 871 868 865 865 860 856 851 850 847 844 839 833 827 820 815 813 809
868 871 869 868 869 871 875 885 934 927 946 937 908 904 888 890 893 895 900 899 895 889 885 882 874 872 871 869 867 866 864 863 859 855 853 851 848 844 838 833 828 822 817 813
873 877 870 870 871 869 879 886 923 932 936 926 909 914 886 895 896 897 898 897 894 890 886 882 876 873 872 870 869 867 863 860 858 855 854 854 851 847 842 837 831 827 822 817
870 872 874 874 874 877 879 905 895 950 987 952 918 894 893 893 894 896 897 895 891 889 886 882 876 875 872 873 872 870 869 862 857 856 854 854 852 848 844 840 835 830 824 818
861 880 876 876 876 881 878 891 908 937 940 955 926 911 880 887 890 895 896 893 893 891 888 883 879 875 873 876 874 871 869 865 860 860 857 856 852 850 845 842 837 833 829 822
861 866 883 876 881 884 895 907 909 909 921 948 956 907 879 882 890 892 894 894 893 891 889 885 881 877 877 878 875 872 869 865 862 861 859 855 853 849 847 842 840 836 833 828
856 875 902 880 883 884 880 885 895 925 926 935 939 906 878 885 889 891 892 894 892 890 890 886 884 882 882 882 877 873 871 867 865 863 860 858 854 850 847 843 841 837 833 829
858 887 924 899 890 884 881 882 894 924 931 926 944 901 884 885 887 891 892 892 891 889 889 889 887 887 886 886 880 877 874 870 868 864 862 859 857 853 850 846 842 838 834 831
854 891 882 865 860 878 878 879 890 904 934 927 898 906 888 885 890 891 892 892 889 890 892 893 892 891 890 888 883 880 877 874 871 867 865 863 860 856 853 849 845 841 837 833
863 877 898 905 887 875 869 872 888 896 885 885 878 886 886 893 898 900 893 889 888 891 894 895 893 893 891 889 885 882 878 876 873 870 867 865 862 859 856 851 847 843 839 834
872 882 888 901 895 895 891 877 883 879 903 897 889 874 869 879 886 893 892 889 890 895 896 895 895 893 893 889 885 883 880 877 875 872 869 866 862 858 855 852 848 844 840 835
865 883 884 895 906 908 892 857 863 875 887 869 882 856 871 883 882 894 889 891 893 894 895 894 893 892 892 889 886 883 880 877 875 872 870 866 862 859 855 852 848 844 840 837
867 878 892 915 925 905 845 855 855 851 858 873 877 877 869 884 878 880 884 886 889 892 892 891 891 891 890 888 884 881 879 876 873 870 868 865 862 858 855 851 848 844 841 837
861 868 907 894 933 870 837 856 858 857 846 852 855 862 868 876 877 877 878 882 885 887 889 888 889 890 888 885 882 878 875 872 869 866 864 862 860 856 853 850 847 844 839 835
866 868 858 931 905 879 827 841 847 842 853 838 844 854 864 871 879 873 877 879 882 885 886 886 888 888 886 882 879 876 873 870 868 865 862 860 857 854 851 848 845 842 840 835
870 876 861 893 892 867 831 840 842 857 826 835 836 845 857 863 859 868 873 877 881 882 883 883 885 884 882 880 878 874 872 870 867 864 860 857 854 851 848 846 843 840 837 834
842 858 882 917 899 845 827 842 835 820 827 828 837 841 847 853 860 866 869 873 876 879 879 881 882 880 879 878 876 873 871 868 864 861 858 854 851 848 846 844 840 838 835 832
821 820 832 833 819 822 810 817 820 824 824 830 832 838 842 850 856 862 866 871 873 875 877 879 879 877 877 875 874 872 869 865 863 860 855 852 849 847 844 841 838 836 834 831
829 836 829 826 810 815 811 822 822 820 823 825 828 835 841 847 852 858 864 867 871 872 875 877 875 874 874 873 872 870 867 864 861 858 854 850 848 844 842 840 838 835 833 830
805 813 823 819 809 812 812 814 814 818 822 826 831 835 839 846 851 854 860 862 867 868 872 873 871 870 870 870 869 867 864 861 859 856 853 850 847 843 841 839 837 835 833 830
794 789 787 778 775 780 781 789 805 814 817 822 828 836 839 842 845 851 855 857 861 864 869 868 866 866 867 867 866 864 862 860 857 853 850 848 845 843 840 837 832 832 830 828